Regional Weather Roundup
Issued by NWS

Home | Current Version | Previous Version | Graphics & Text | Print | Product List | Glossary On
Versions: 1 2 3 4 5 6 7 8 9 10 11 12 13 14 15 16 17 18 19 20 21 22 23 24 25 26 27 28 29 30 31 32 33 34 35 36 37 38 39 40 41 42 43 44 45 46 47 48 49 50
000
ASUS43 KDMX 261607
RWRIA

WEATHER ROUNDUP FOR IOWA
NATIONAL WEATHER SERVICE DES MOINES IA
1000 AM CST FRI DEC 26 2014

NOTE: "FAIR" INDICATES FEW OR NO CLOUDS BELOW 12,000 FEET WITH NO
SIGNIFICANT WEATHER AND/OR OBSTRUCTIONS TO VISIBILITY.

* - THESE STATIONS ARE NOT NWS STATIONS...THUS NOT UNDER NWS
QUALITY CONTROL.  THEY ALSO DO NOT REPORT WEATHER SUCH
AS PRECIPITATION OR FOG.

IAZ001>003-012>014-020>022-031>034-043>046-261700-
   NORTHWEST IOWA

CITY           SKY/WX    TMP DP  RH WIND       PRES   REMARKS
CARROLL *      CLOUDY    32  32 100 N16G23    29.97R FOG     WCI  21
CHEROKEE *     CLOUDY    30  30 100 N10       30.01R WCI  21
DENISON *      CLOUDY    32  32 100 N13       29.97R FOG     WCI  22
LE MARS *      CLOUDY    30  28  93 N13       30.04R WCI  20
ORANGE CITY *  CLOUDY    30  27  86 N8        30.03R WCI  23
SHELDON *      CLOUDY    28  28 100 N15       30.03R WCI  17
SIOUX CITY     CLOUDY    31  26  82 N17       30.02F WCI  19
SPENCER        CLOUDY    31  28  89 N13       30.02R WCI  21
STORM LAKE *   CLOUDY    30  30 100 N18       29.98S FOG     WCI  18
$$

IAZ055>058-069>071-079>083-090>094-261700-
   SOUTHWEST IOWA

CITY           SKY/WX    TMP DP  RH WIND       PRES   REMARKS
ATLANTIC *     CLOUDY    32  32 100 N12       29.97R FOG     WCI  23
AUDUBON *      PTSUNNY   32  28  86 N13       29.99R FOG     WCI  22
CLARINDA *     CLOUDY    34  32  93 N15       29.97S WCI  24
COUNCIL BLFS * CLOUDY    34  34 100 N13G20    29.96R FOG     WCI  25
CRESTON *      FOG       30  30 100 N10       29.95R VSB 1   WCI  21
HARLAN  *      CLOUDY    34  34 100 N14       30.01R FOG     WCI  24
LAMONI         CLOUDY    39  33  79 S8        29.94R WCI  33
RED OAK *      CLOUDY    34  32  93 N14       29.98R WCI  24
SHENANDOAH *   CLOUDY    34  32  93 N9        29.99R WCI  26
$$

IAZ047>049-059>061-072>074-084-261700-
   CENTRAL IOWA

CITY           SKY/WX    TMP DP  RH WIND       PRES   REMARKS
AMES           FOG       30  29  96 N13       29.96R VSB 1/4 WCI  20
ANKENY *       CLOUDY    30  30 100 N13       29.96R WCI  20
CHARITON *     SUNNY     41  34  75 SW6       29.94R
DES MOINES     CLOUDY    32  29  88 NW8       29.96R FOG     WCI  25
GRINNELL*      PTSUNNY   37  32  81 SW6       29.95R WCI  33
KNOXVILLE *    SUNNY     39  32  75 W6        29.94R WCI  35
MARSHALLTOWN   MOSUNNY   36  31  82 W6        29.94R WCI  31
PELLA *        PTSUNNY   41  32  70 W6        29.96R
PERRY *        CLOUDY    32  32 100 N12       29.98R FOG     WCI  23
$$

IAZ004>006-015-016-023>025-035-036-261700-
   NORTH CENTRAL IOWA

CITY           SKY/WX    TMP DP  RH WIND       PRES   REMARKS
ALGONA *       FOG       32  32 100 N15       29.98R VSB 3/4 WCI  22
CLARION *      CLOUDY    32  32 100 N10G20    29.96R FOG     WCI  24
ESTHERVILLE    CLOUDY    30  28  92 N20       30.00R WCI  17
FORT DODGE *   CLOUDY    32  28  86 N8        29.97R WCI  25
MASON CITY     CLOUDY    31  30  96 N15       29.96R FOG     WCI  20
FOREST CITY *  CLOUDY    32  32 100 N12G17    29.95R FOG     WCI  23
IOWA FALLS *   FOG       30  28  93 NW9       29.96R VSB 3/4 WCI  22
$$

IAZ007>011-017>019-026>030-037>042-050>054-066-261700-
   NORTHEAST IOWA

CITY           SKY/WX    TMP DP  RH WIND       PRES   REMARKS
CEDAR RAPIDS   PTSUNNY   40  35  83 S8        29.94R WCI  34
CHARLES CITY * SUNNY     34  34 100 NW8       29.93R WCI  27
CLINTON *      PTSUNNY   45  36  70 S12       30.01R
DECORAH *      SUNNY     37  32  81 S6        29.92R WCI  33
DUBUQUE        MOSUNNY   38  34  85 S8        29.95R WCI  32
MONTICELLO *   SUNNY     41  37  87 S6        29.95R
OELWEIN *      SUNNY     36  32  87 S6        29.94R WCI  31
WATERLOO       SUNNY     37  32  82 W3        29.94R
$$

IAZ064-065-067-068-078-261700-
   EAST CENTRAL IOWA

CITY           SKY/WX    TMP DP  RH WIND       PRES   REMARKS
DAVENPORT      PTSUNNY   44  34  67 S16G23    29.98R
IOWA CITY      CLOUDY    42  35  76 S5        29.97R
MT. PLEASANT * CLOUDY    43  36  75 S12       29.98S
MUSCATINE *    SUNNY     46  36  66 S13G20    29.97S
QUAD CITIES    CLOUDY    44  35  70 SW10      29.98R
$$

IAZ062-063-075>077-085>089-095>099-261700-
   SOUTHEAST IOWA

CITY           SKY/WX    TMP DP  RH WIND       PRES   REMARKS
BURLINGTON     CLOUDY    47  38  71 SW14      29.99R
FAIRFIELD *    SUNNY     45  36  70 S12       29.97R
FORT MADISON * SUNNY     46  39  76 S16G22    29.99S
KEOKUK *       SUNNY     46  37  71 S14G21    29.98S
OSKALOOSA *      N/A     43  36  75 SW8       29.96R
CENTERVILLE *  SUNNY     45  36  70 S9        29.96R
OTTUMWA        CLOUDY    43  34  70 S6        29.95R
WASHINGTON *   SUNNY     43  39  87 SW13      29.97R
$$

ABBREVIATIONS USED IN REMARKS
   TC - TEMPERATURES IN CELSIUS
  WCI - WIND CHILL INDEX
   HX - HEAT INDEX
  VSB - VISIBILITY
$$




USA.gov is the U.S. government's official web portal to all federal, state and local government web resources and services.